Coventry, United Kingdom

5:06 AM BST on August 21, 2017 (GMT +0100)
Coventry

Weather History for EGBE - October, 2012

Change the Weather History Date:

Monday, October 8, 2012

  Actual Average Record
Temperature  
Mean Temperature 52 °F -  
Max Temperature 55 °F 53 °F 69 °F (2013)
Min Temperature 50 °F 42 °F 41 °F (2003)
Degree Days  
Heating Degree Days 12    
Growing Degree Days 2 (Base 50)    
Moisture  
Dew Point 51 °F    
Average Humidity 91    
Maximum Humidity 94    
Minimum Humidity 82    
Precipitation  
Precipitation 0.00 in - - ()
Sea Level Pressure  
Sea Level Pressure 29.95 in    
Wind  
Wind Speed 5 mph ()    
Max Wind Speed 9 mph    
Max Gust Speed -    
Visibility 4.5 miles    
Events Rain    
Averages and records for this station are not official NWS values.
T = Trace of Precipitation, MM = Missing Value Source: Averaged Metar Reports

Daily Weather History Graph

Daily Weather History Graph

Search for Another Location

Airport or City:

Trip Planner

Search our weather history database for the weather conditions in past years. The results will help you decide how hot, cold, wet, or windy it might be!

Date:

Astronomy

Oct. 08, 2012 Rise Set
Actual Time 7:19 AM BST 6:26 PM BST
Civil Twilight 6:45 AM BST 7:00 PM BST
Nautical Twilight 6:06 AM BST 7:39 PM BST
Astronomical Twilight 5:26 AM BST 8:19 PM BST
Moon 11:57 PM BST (10/8) 2:53 PM BST (10/8)
Length of Visible Light 12h 14m
Length of Day
11h 06m
Waning Gibbous, 48% of the Moon is Illuminated
Oct 8
Waning Gibbous
Oct 15
New
Oct 22
First Quarter
Oct 29
Full
Nov 7
Last Quarter

Hourly Weather History & Observations

Time (BST) Temp. Dew Point Humidity Pressure Visibility Wind Dir Wind Speed Gust Speed Precip Events Conditions
6:50 AM 50.0 °F 48.2 °F 94% 30.01 in 5.0 mi ENE 4.6 mph - N/A   Unknown
7:20 AM 50.0 °F 48.2 °F 94% 30.01 in 2.8 mi ESE 5.8 mph - N/A   Mist
7:50 AM 50.0 °F 48.2 °F 94% 30.01 in 2.8 mi East 5.8 mph - N/A   Haze
8:20 AM 50.0 °F 48.2 °F 94% 30.01 in 2.8 mi East 5.8 mph - N/A   Haze
8:50 AM 51.8 °F 50.0 °F 94% 30.01 in 3.1 mi East 5.8 mph - N/A   Haze
9:20 AM 51.8 °F 50.0 °F 94% 30.01 in 3.7 mi East 6.9 mph - N/A   Scattered Clouds
9:50 AM 51.8 °F 50.0 °F 94% 29.98 in 5.0 mi East 6.9 mph - N/A   Scattered Clouds
10:20 AM 53.6 °F 50.0 °F 88% 29.98 in 5.0 mi ESE 8.1 mph - N/A   Mostly Cloudy
10:50 AM 53.6 °F 50.0 °F 88% 29.98 in 5.0 mi ESE 8.1 mph - N/A   Scattered Clouds
11:20 AM 55.4 °F 50.0 °F 82% 29.98 in 4.3 mi ESE 8.1 mph - N/A   Mostly Cloudy
11:50 AM 55.4 °F 50.0 °F 82% 29.95 in 5.0 mi ESE 8.1 mph - N/A   Mostly Cloudy
12:20 PM 55.4 °F 51.8 °F 88% 29.95 in 5.0 mi ESE 6.9 mph - N/A   Mostly Cloudy
12:50 PM 55.4 °F 51.8 °F 88% 29.95 in 5.0 mi ESE 8.1 mph - N/A   Mostly Cloudy
1:20 PM 55.4 °F 51.8 °F 88% 29.95 in 5.0 mi ESE 6.9 mph - N/A   Mostly Cloudy
1:50 PM 55.4 °F 51.8 °F 88% 29.92 in 5.0 mi ESE 5.8 mph - N/A   Mostly Cloudy
2:20 PM 55.4 °F 51.8 °F 88% 29.92 in 3.7 mi ESE 6.9 mph - N/A   Mostly Cloudy
2:50 PM 55.4 °F 53.6 °F 94% 29.92 in 3.7 mi ESE 5.8 mph - N/A   Mostly Cloudy
3:20 PM 55.4 °F 51.8 °F 88% 29.92 in 4.3 mi East 6.9 mph - N/A   Mostly Cloudy
3:50 PM 55.4 °F 53.6 °F 94% 29.92 in 5.0 mi ESE 5.8 mph - N/A   Mostly Cloudy
4:20 PM 55.4 °F 53.6 °F 94% 29.92 in 5.6 mi Variable 2.3 mph - N/A   Mostly Cloudy
4:50 PM 55.4 °F 53.6 °F 94% 29.92 in 5.0 mi Variable 2.3 mph - N/A Rain Light Rain
5:20 PM 55.4 °F 53.6 °F 94% 29.89 in 5.0 mi Variable 2.3 mph - N/A   Light Drizzle
5:50 PM 55.4 °F 53.6 °F 94% 29.89 in 5.0 mi Variable 3.5 mph - N/A   Light Drizzle
6:20 PM 55.4 °F 53.6 °F 94% 29.92 in 5.0 mi Variable 2.3 mph - N/A   Light Drizzle
6:50 PM 55.4 °F 51.8 °F 88% 29.92 in 5.0 mi NE 3.5 mph - N/A   Light Drizzle
7:20 PM 55.4 °F 51.8 °F 88% 29.92 in 5.6 mi North 4.6 mph - N/A   Mostly Cloudy
7:50 PM 55.4 °F 51.8 °F 88% 29.92 in 5.6 mi North 4.6 mph - N/A   Mostly Cloudy
8:20 PM 55.4 °F 51.8 °F 88% 29.92 in 5.0 mi NNE 9.2 mph - N/A   Mostly Cloudy
8:50 PM 53.6 °F 51.8 °F 94% 29.92 in 5.0 mi NNE 8.1 mph - N/A   Mostly Cloudy
9:20 PM 53.6 °F 51.8 °F 94% 29.95 in 4.3 mi NNE 8.1 mph - N/A   Mostly Cloudy
9:50 PM 53.6 °F 50.0 °F 88% 29.95 in 5.0 mi NNE 9.2 mph - N/A   Mostly Cloudy
10:20 PM 51.8 °F 50.0 °F 94% 29.95 in 5.0 mi NNE 6.9 mph - N/A   Unknown
10:50 PM 51.8 °F 50.0 °F 94% 29.95 in 4.3 mi North 6.9 mph - N/A   Unknown
11:20 PM 50.0 °F 48.2 °F 94% 29.95 in 3.1 mi North 5.8 mph - N/A   Mist
11:50 PM 50.0 °F 48.2 °F 94% 29.95 in 2.8 mi North 6.9 mph - N/A   Mist